Time,TemperatureF,DewpointF,PressureIn,WindDirection,WindDirectionDegrees,WindSpeedMPH,WindSpeedGustMPH,Humidity,HourlyPrecipIn,Conditions,Clouds,dailyrainin,SoftwareType,DateUTC
2013-01-31 00:04:00,53.1,38.7,30.28,NNE,28,6.0,13.0,58,0.00,,,0.00,meteohub,2013-01-31 08:04:00,
2013-01-31 00:09:00,53.1,38.7,30.28,NE,49,10.0,13.0,58,0.00,,,0.00,meteohub,2013-01-31 08:09:00,
2013-01-31 00:14:00,53.1,39.2,30.28,NE,54,10.0,12.0,59,0.00,,,0.00,meteohub,2013-01-31 08:14:00,
2013-01-31 00:19:00,52.9,39.0,30.28,NNE,24,10.0,12.0,59,0.00,,,0.00,meteohub,2013-01-31 08:19:00,
2013-01-31 00:24:00,52.9,38.5,30.28,NNE,29,10.0,12.0,58,0.00,,,0.00,meteohub,2013-01-31 08:24:00,
2013-01-31 00:29:00,52.9,38.5,30.28,ENE,63,9.0,12.0,58,0.00,,,0.00,meteohub,2013-01-31 08:29:00,
2013-01-31 00:34:00,53.1,38.3,30.28,NE,44,12.0,14.0,57,0.00,,,0.00,meteohub,2013-01-31 08:34:00,
2013-01-31 00:39:00,53.1,37.8,30.28,NE,36,12.0,14.0,56,0.00,,,0.00,meteohub,2013-01-31 08:39:00,
2013-01-31 00:44:00,53.1,37.8,30.27,NE,42,8.0,14.0,56,0.00,,,0.00,meteohub,2013-01-31 08:44:00,
2013-01-31 00:49:00,53.1,37.8,30.27,NE,43,8.0,14.0,56,0.00,,,0.00,meteohub,2013-01-31 08:49:00,
2013-01-31 00:54:00,53.1,37.4,30.27,NE,53,13.0,14.0,55,0.00,,,0.00,meteohub,2013-01-31 08:54:00,
2013-01-31 00:59:00,53.1,36.9,30.27,NE,43,10.0,14.0,54,0.00,,,0.00,meteohub,2013-01-31 08:59:00,
2013-01-31 01:04:00,53.2,36.5,30.27,NE,53,9.0,14.0,53,0.00,,,0.00,meteohub,2013-01-31 09:04:00,
2013-01-31 01:09:00,53.2,36.1,30.27,NE,52,10.0,16.0,52,0.00,,,0.00,meteohub,2013-01-31 09:09:00,
2013-01-31 01:14:00,53.4,35.8,30.27,NNE,29,6.0,16.0,51,0.00,,,0.00,meteohub,2013-01-31 09:14:00,
2013-01-31 01:19:00,53.6,36.0,30.27,NE,50,13.0,16.0,51,0.00,,,0.00,meteohub,2013-01-31 09:19:00,
2013-01-31 01:24:00,53.8,35.6,30.27,NNE,29,14.0,16.0,50,0.00,,,0.00,meteohub,2013-01-31 09:24:00,
2013-01-31 01:29:00,53.8,35.6,30.27,NE,51,10.0,16.0,50,0.00,,,0.00,meteohub,2013-01-31 09:29:00,
2013-01-31 01:34:00,54.0,35.2,30.27,NE,52,7.0,16.0,49,0.00,,,0.00,meteohub,2013-01-31 09:34:00,
2013-01-31 01:39:00,54.0,35.2,30.27,NNE,32,11.0,16.0,49,0.00,,,0.00,meteohub,2013-01-31 09:39:00,
2013-01-31 01:44:00,54.1,34.9,30.27,NNE,23,7.0,16.0,48,0.00,,,0.00,meteohub,2013-01-31 09:44:00,
2013-01-31 01:49:00,54.1,34.9,30.27,NE,50,10.0,16.0,48,0.00,,,0.00,meteohub,2013-01-31 09:49:00,
2013-01-31 01:54:00,54.0,34.7,30.27,NE,55,11.0,14.0,48,0.00,,,0.00,meteohub,2013-01-31 09:54:00,
2013-01-31 01:59:00,54.0,34.7,30.28,NE,46,10.0,14.0,48,0.00,,,0.00,meteohub,2013-01-31 09:59:00,
2013-01-31 02:04:00,54.0,34.7,30.28,NNE,32,10.0,14.0,48,0.00,,,0.00,meteohub,2013-01-31 10:04:00,
2013-01-31 02:09:00,54.0,34.2,30.27,NE,40,10.0,14.0,47,0.00,,,0.00,meteohub,2013-01-31 10:09:00,
2013-01-31 02:14:00,54.0,34.2,30.27,NE,53,8.0,15.0,47,0.00,,,0.00,meteohub,2013-01-31 10:14:00,
2013-01-31 02:19:00,54.0,34.2,30.27,NNE,32,6.0,15.0,47,0.00,,,0.00,meteohub,2013-01-31 10:19:00,
2013-01-31 02:24:00,53.8,34.0,30.27,NNE,23,8.0,15.0,47,0.00,,,0.00,meteohub,2013-01-31 10:24:00,
2013-01-31 02:29:00,53.8,34.0,30.27,NE,47,5.0,15.0,47,0.00,,,0.00,meteohub,2013-01-31 10:29:00,
2013-01-31 02:34:00,53.8,34.0,30.27,NNE,32,9.0,15.0,47,0.00,,,0.00,meteohub,2013-01-31 10:34:00,
2013-01-31 02:39:00,53.8,34.0,30.27,ENE,60,12.0,14.0,47,0.00,,,0.00,meteohub,2013-01-31 10:39:00,
2013-01-31 02:44:00,53.8,34.0,30.27,ENE,65,12.0,14.0,47,0.00,,,0.00,meteohub,2013-01-31 10:44:00,
2013-01-31 02:49:00,54.0,33.6,30.26,ENE,65,11.0,14.0,46,0.00,,,0.00,meteohub,2013-01-31 10:49:00,
2013-01-31 02:54:00,54.0,33.6,30.26,NNE,33,7.0,15.0,46,0.00,,,0.00,meteohub,2013-01-31 10:54:00,
2013-01-31 02:59:00,53.8,34.0,30.27,NE,50,9.0,15.0,47,0.00,,,0.00,meteohub,2013-01-31 10:59:00,
2013-01-31 03:04:00,53.6,33.8,30.27,NE,53,9.0,15.0,47,0.00,,,0.00,meteohub,2013-01-31 11:04:00,
2013-01-31 03:09:00,53.2,33.4,30.27,NE,44,7.0,14.0,47,0.00,,,0.00,meteohub,2013-01-31 11:09:00,
2013-01-31 03:14:00,53.2,33.4,30.27,ENE,57,9.0,14.0,47,0.00,,,0.00,meteohub,2013-01-31 11:14:00,
2013-01-31 03:19:00,53.2,33.4,30.27,NE,49,6.0,12.0,47,0.00,,,0.00,meteohub,2013-01-31 11:19:00,
2013-01-31 03:24:00,53.2,33.4,30.27,NE,52,10.0,12.0,47,0.00,,,0.00,meteohub,2013-01-31 11:24:00,
2013-01-31 03:29:00,53.2,34.0,30.27,ENE,67,7.0,11.0,48,0.00,,,0.00,meteohub,2013-01-31 11:29:00,
2013-01-31 03:34:00,53.1,33.4,30.26,NE,42,5.0,11.0,47,0.00,,,0.00,meteohub,2013-01-31 11:34:00,
2013-01-31 03:39:00,52.9,33.8,30.26,NE,49,6.0,10.0,48,0.00,,,0.00,meteohub,2013-01-31 11:39:00,
2013-01-31 03:44:00,52.7,33.6,30.26,NNE,33,8.0,12.0,48,0.00,,,0.00,meteohub,2013-01-31 11:44:00,
2013-01-31 03:49:00,52.5,33.4,30.26,NE,42,8.0,12.0,48,0.00,,,0.00,meteohub,2013-01-31 11:49:00,
2013-01-31 03:54:00,52.5,33.4,30.26,NE,55,8.0,12.0,48,0.00,,,0.00,meteohub,2013-01-31 11:54:00,
2013-01-31 03:59:00,52.5,33.4,30.26,NE,49,5.0,12.0,48,0.00,,,0.00,meteohub,2013-01-31 11:59:00,
2013-01-31 04:04:00,52.3,33.8,30.26,ENE,59,5.0,11.0,49,0.00,,,0.00,meteohub,2013-01-31 12:04:00,
2013-01-31 04:09:00,52.3,33.3,30.26,NNE,32,6.0,11.0,48,0.00,,,0.00,meteohub,2013-01-31 12:09:00,
2013-01-31 04:14:00,52.2,33.6,30.26,NE,55,5.0,10.0,49,0.00,,,0.00,meteohub,2013-01-31 12:14:00,
2013-01-31 04:19:00,52.0,32.9,30.26,NE,56,5.0,10.0,48,0.00,,,0.00,meteohub,2013-01-31 12:19:00,
2013-01-31 04:24:00,52.2,33.1,30.26,ENE,64,5.0,7.0,48,0.00,,,0.00,meteohub,2013-01-31 12:24:00,
2013-01-31 04:29:00,52.2,33.6,30.26,NE,49,6.0,8.0,49,0.00,,,0.00,meteohub,2013-01-31 12:29:00,
2013-01-31 04:34:00,52.2,33.6,30.26,NNE,19,4.0,8.0,49,0.00,,,0.00,meteohub,2013-01-31 12:34:00,
2013-01-31 04:39:00,52.3,33.8,30.26,NE,37,8.0,9.0,49,0.00,,,0.00,meteohub,2013-01-31 12:39:00,
2013-01-31 04:44:00,52.3,33.3,30.26,ENE,69,7.0,10.0,48,0.00,,,0.00,meteohub,2013-01-31 12:44:00,
2013-01-31 04:49:00,52.3,33.3,30.26,NE,54,6.0,10.0,48,0.00,,,0.00,meteohub,2013-01-31 12:49:00,
2013-01-31 04:54:00,52.2,33.1,30.26,NE,42,4.0,10.0,48,0.00,,,0.00,meteohub,2013-01-31 12:54:00,
2013-01-31 04:59:00,52.0,33.4,30.27,NNE,13,0.0,10.0,49,0.00,,,0.00,meteohub,2013-01-31 12:59:00,
2013-01-31 05:04:00,51.4,34.0,30.27,NE,45,2.0,8.0,51,0.00,,,0.00,meteohub,2013-01-31 13:04:00,
2013-01-31 05:09:00,51.1,33.1,30.27,North,5,2.0,8.0,50,0.00,,,0.00,meteohub,2013-01-31 13:09:00,
2013-01-31 05:14:00,50.5,33.1,30.27,North,9,0.0,3.0,51,0.00,,,0.00,meteohub,2013-01-31 13:14:00,
2013-01-31 05:19:00,49.8,33.4,30.27,North,9,0.0,3.0,53,0.00,,,0.00,meteohub,2013-01-31 13:19:00,
2013-01-31 05:24:00,49.3,32.9,30.27,North,9,0.0,3.0,53,0.00,,,0.00,meteohub,2013-01-31 13:24:00,
2013-01-31 05:29:00,48.7,32.9,30.27,North,9,0.0,3.0,54,0.00,,,0.00,meteohub,2013-01-31 13:29:00,
2013-01-31 05:34:00,48.4,32.5,30.27,North,9,0.0,1.0,54,0.00,,,0.00,meteohub,2013-01-31 13:34:00,
2013-01-31 05:39:00,47.8,32.5,30.27,North,9,0.0,1.0,55,0.00,,,0.00,meteohub,2013-01-31 13:39:00,
2013-01-31 05:44:00,47.5,33.4,30.27,North,9,0.0,3.0,58,0.00,,,0.00,meteohub,2013-01-31 13:44:00,
2013-01-31 05:50:00,46.9,32.9,30.27,North,9,0.0,3.0,58,0.00,,,0.00,meteohub,2013-01-31 13:50:00,
2013-01-31 05:55:00,46.9,32.9,30.27,NNE,22,1.0,3.0,58,0.00,,,0.00,meteohub,2013-01-31 13:55:00,
2013-01-31 06:00:00,47.1,33.1,30.27,NNE,22,2.0,3.0,58,0.00,,,0.00,meteohub,2013-01-31 14:00:00,
2013-01-31 06:05:00,46.9,32.5,30.27,NE,50,3.0,3.0,57,0.00,,,0.00,meteohub,2013-01-31 14:05:00,
2013-01-31 06:10:00,47.5,32.5,30.27,NE,55,1.0,3.0,56,0.00,,,0.00,meteohub,2013-01-31 14:10:00,
2013-01-31 06:15:00,47.7,32.4,30.27,NE,46,3.0,4.0,55,0.00,,,0.00,meteohub,2013-01-31 14:15:00,
2013-01-31 06:20:00,47.8,32.5,30.27,NE,40,3.0,4.0,55,0.00,,,0.00,meteohub,2013-01-31 14:20:00,
2013-01-31 06:25:00,48.0,32.5,30.27,NE,49,1.0,4.0,55,0.00,,,0.00,meteohub,2013-01-31 14:25:00,
2013-01-31 06:30:00,48.2,32.4,30.27,NE,49,0.0,4.0,54,0.00,,,0.00,meteohub,2013-01-31 14:30:00,
2013-01-31 06:35:00,48.4,32.5,30.27,NE,49,0.0,4.0,54,0.00,,,0.00,meteohub,2013-01-31 14:35:00,
2013-01-31 06:40:00,48.4,32.5,30.27,NE,49,0.0,4.0,54,0.00,,,0.00,meteohub,2013-01-31 14:40:00,
2013-01-31 06:45:00,48.4,32.5,30.28,NE,49,0.0,2.0,54,0.00,,,0.00,meteohub,2013-01-31 14:45:00,
2013-01-31 06:50:00,48.2,32.4,30.28,NE,49,2.0,2.0,54,0.00,,,0.00,meteohub,2013-01-31 14:50:00,
2013-01-31 06:55:00,47.7,32.7,30.28,NE,42,3.0,4.0,56,0.00,,,0.00,meteohub,2013-01-31 14:55:00,
2013-01-31 07:00:00,47.1,32.2,30.28,NE,42,1.0,4.0,56,0.00,,,0.00,meteohub,2013-01-31 15:00:00,
2013-01-31 07:05:00,47.1,32.2,30.28,NE,42,1.0,4.0,56,0.00,,,0.00,meteohub,2013-01-31 15:05:00,
2013-01-31 07:10:00,46.9,32.5,30.28,NE,37,1.0,4.0,57,0.00,,,0.00,meteohub,2013-01-31 15:10:00,
2013-01-31 07:15:00,46.8,32.4,30.28,NE,39,1.0,3.0,57,0.00,,,0.00,meteohub,2013-01-31 15:15:00,
2013-01-31 07:20:00,46.6,32.2,30.28,NE,39,0.0,3.0,57,0.00,,,0.00,meteohub,2013-01-31 15:20:00,
2013-01-31 07:25:00,46.2,32.7,30.29,NE,39,2.0,3.0,59,0.00,,,0.00,meteohub,2013-01-31 15:25:00,
2013-01-31 07:30:00,46.0,32.0,30.28,NE,39,2.0,3.0,58,0.00,,,0.00,meteohub,2013-01-31 15:30:00,
2013-01-31 07:35:00,46.0,32.5,30.28,NE,44,1.0,3.0,59,0.00,,,0.00,meteohub,2013-01-31 15:35:00,
2013-01-31 07:40:00,45.9,32.7,30.28,NE,35,1.0,4.0,60,0.00,,,0.00,meteohub,2013-01-31 15:40:00,
2013-01-31 07:45:00,45.1,32.9,30.28,NE,46,3.0,4.0,62,0.00,,,0.00,meteohub,2013-01-31 15:45:00,
2013-01-31 07:50:00,44.4,32.5,30.29,NE,55,3.0,5.0,63,0.00,,,0.00,meteohub,2013-01-31 15:50:00,
2013-01-31 07:55:00,44.6,32.7,30.29,NNE,31,3.0,6.0,63,0.00,,,0.00,meteohub,2013-01-31 15:55:00,
2013-01-31 08:00:00,44.8,33.3,30.29,NNE,25,1.0,8.0,64,0.00,,,0.00,meteohub,2013-01-31 16:00:00,
2013-01-31 08:05:00,44.4,33.1,30.29,NNE,25,3.0,8.0,64,0.00,,,0.00,meteohub,2013-01-31 16:05:00,
2013-01-31 08:10:00,44.4,33.1,30.29,NE,44,3.0,8.0,64,0.00,,,0.00,meteohub,2013-01-31 16:10:00,
2013-01-31 08:15:00,44.6,33.3,30.30,North,5,4.0,5.0,64,0.00,,,0.00,meteohub,2013-01-31 16:15:00,
2013-01-31 08:20:00,45.1,33.3,30.29,NE,53,5.0,5.0,63,0.00,,,0.00,meteohub,2013-01-31 16:20:00,
2013-01-31 08:25:00,46.0,34.2,30.29,NE,38,8.0,8.0,63,0.00,,,0.00,meteohub,2013-01-31 16:25:00,
2013-01-31 08:30:00,46.9,34.2,30.30,NE,41,5.0,8.0,61,0.00,,,0.00,meteohub,2013-01-31 16:30:00,
2013-01-31 08:35:00,47.7,34.5,30.30,NE,55,6.0,8.0,60,0.00,,,0.00,meteohub,2013-01-31 16:35:00,
2013-01-31 08:40:00,48.0,34.3,30.30,NNE,30,5.0,8.0,59,0.00,,,0.00,meteohub,2013-01-31 16:40:00,
2013-01-31 08:45:00,48.4,34.7,30.30,NE,42,5.0,8.0,59,0.00,,,0.00,meteohub,2013-01-31 16:45:00,
2013-01-31 08:50:00,48.6,34.9,30.30,ENE,65,7.0,8.0,59,0.00,,,0.00,meteohub,2013-01-31 16:50:00,
2013-01-31 08:55:00,48.9,34.3,30.30,North,5,4.0,8.0,57,0.00,,,0.00,meteohub,2013-01-31 16:55:00,
2013-01-31 09:00:00,49.3,34.7,30.30,NE,46,3.0,9.0,57,0.00,,,0.00,meteohub,2013-01-31 17:00:00,
2013-01-31 09:05:00,49.6,35.1,30.30,NNE,17,7.0,9.0,57,0.00,,,0.00,meteohub,2013-01-31 17:05:00,
2013-01-31 09:10:00,50.2,34.7,30.30,NE,39,3.0,10.0,55,0.00,,,0.00,meteohub,2013-01-31 17:10:00,
2013-01-31 09:15:00,50.4,34.9,30.30,ENE,58,4.0,10.0,55,0.00,,,0.00,meteohub,2013-01-31 17:15:00,
2013-01-31 09:20:00,50.5,35.1,30.30,NE,40,2.0,10.0,55,0.00,,,0.00,meteohub,2013-01-31 17:20:00,
2013-01-31 09:25:00,50.7,35.1,30.30,NNE,27,4.0,10.0,55,0.00,,,0.00,meteohub,2013-01-31 17:25:00,
2013-01-31 09:30:00,51.1,35.4,30.30,NE,44,2.0,6.0,55,0.00,,,0.00,meteohub,2013-01-31 17:30:00,
2013-01-31 09:35:00,51.3,35.6,30.30,NE,41,3.0,6.0,55,0.00,,,0.00,meteohub,2013-01-31 17:35:00,
2013-01-31 09:40:00,51.3,35.6,30.30,North,5,7.0,7.0,55,0.00,,,0.00,meteohub,2013-01-31 17:40:00,
2013-01-31 09:45:00,51.4,35.4,30.30,NNE,26,6.0,9.0,54,0.00,,,0.00,meteohub,2013-01-31 17:45:00,
2013-01-31 09:50:00,51.4,35.4,30.30,NE,35,7.0,10.0,54,0.00,,,0.00,meteohub,2013-01-31 17:50:00,
2013-01-31 09:55:00,51.4,35.4,30.30,NE,38,7.0,10.0,54,0.00,,,0.00,meteohub,2013-01-31 17:55:00,
2013-01-31 10:00:00,51.6,35.6,30.30,NNE,25,8.0,10.0,54,0.00,,,0.00,meteohub,2013-01-31 18:00:00,
2013-01-31 10:05:00,52.0,35.8,30.30,NE,42,8.0,11.0,54,0.00,,,0.00,meteohub,2013-01-31 18:05:00,
2013-01-31 10:10:00,52.2,35.6,30.30,NNE,24,5.0,11.0,53,0.00,,,0.00,meteohub,2013-01-31 18:10:00,
2013-01-31 10:15:00,52.7,35.6,30.30,NNW,338,5.0,11.0,52,0.00,,,0.00,meteohub,2013-01-31 18:15:00,
2013-01-31 10:20:00,53.1,36.3,30.30,NE,51,5.0,10.0,53,0.00,,,0.00,meteohub,2013-01-31 18:20:00,
2013-01-31 10:25:00,53.6,36.3,30.30,NE,53,5.0,10.0,52,0.00,,,0.00,meteohub,2013-01-31 18:25:00,
2013-01-31 10:30:00,53.8,36.5,30.29,NNE,22,4.0,10.0,52,0.00,,,0.00,meteohub,2013-01-31 18:30:00,
2013-01-31 10:35:00,54.1,36.3,30.29,ENE,57,4.0,10.0,51,0.00,,,0.00,meteohub,2013-01-31 18:35:00,
2013-01-31 10:40:00,54.1,36.3,30.29,NNE,21,5.0,10.0,51,0.00,,,0.00,meteohub,2013-01-31 18:40:00,
2013-01-31 10:45:00,54.7,36.3,30.29,NNE,32,3.0,8.0,50,0.00,,,0.00,meteohub,2013-01-31 18:45:00,
2013-01-31 10:50:00,54.3,36.5,30.29,NE,53,2.0,10.0,51,0.00,,,0.00,meteohub,2013-01-31 18:50:00,
2013-01-31 10:55:00,54.3,37.0,30.29,NNE,16,4.0,10.0,52,0.00,,,0.00,meteohub,2013-01-31 18:55:00,
2013-01-31 11:00:00,54.7,37.4,30.29,ENE,59,5.0,10.0,52,0.00,,,0.00,meteohub,2013-01-31 19:00:00,
2013-01-31 11:05:00,55.2,37.9,30.29,NNE,22,5.0,7.0,52,0.00,,,0.00,meteohub,2013-01-31 19:05:00,
2013-01-31 11:11:00,55.2,36.9,30.29,NE,52,8.0,8.0,50,0.00,,,0.00,meteohub,2013-01-31 19:11:00,
2013-01-31 11:16:00,55.2,36.3,30.29,NE,36,4.0,9.0,49,0.00,,,0.00,meteohub,2013-01-31 19:16:00,
2013-01-31 11:21:00,55.4,36.5,30.28,NE,56,6.0,9.0,49,0.00,,,0.00,meteohub,2013-01-31 19:21:00,
2013-01-31 11:26:00,56.1,37.2,30.28,NNE,32,4.0,9.0,49,0.00,,,0.00,meteohub,2013-01-31 19:26:00,
2013-01-31 11:31:00,56.5,37.6,30.28,NE,42,4.0,11.0,49,0.00,,,0.00,meteohub,2013-01-31 19:31:00,
2013-01-31 11:36:00,55.9,38.5,30.28,ENE,60,5.0,11.0,52,0.00,,,0.00,meteohub,2013-01-31 19:36:00,
2013-01-31 11:41:00,56.1,38.3,30.28,NNE,30,5.0,11.0,51,0.00,,,0.00,meteohub,2013-01-31 19:41:00,
2013-01-31 11:46:00,56.8,38.5,30.27,ENE,59,5.0,8.0,50,0.00,,,0.00,meteohub,2013-01-31 19:46:00,
2013-01-31 11:51:00,56.8,37.9,30.27,NE,51,7.0,8.0,49,0.00,,,0.00,meteohub,2013-01-31 19:51:00,
2013-01-31 11:56:00,57.4,37.4,30.27,North,5,6.0,8.0,47,0.00,,,0.00,meteohub,2013-01-31 19:56:00,
2013-01-31 12:01:00,57.6,36.9,30.27,NNE,22,5.0,9.0,46,0.00,,,0.00,meteohub,2013-01-31 20:01:00,
2013-01-31 12:06:00,57.6,37.4,30.27,NE,54,4.0,9.0,47,0.00,,,0.00,meteohub,2013-01-31 20:06:00,
2013-01-31 12:11:00,57.7,39.2,30.27,NE,51,1.0,9.0,50,0.00,,,0.00,meteohub,2013-01-31 20:11:00,
2013-01-31 12:16:00,57.4,39.4,30.26,NE,55,4.0,8.0,51,0.00,,,0.00,meteohub,2013-01-31 20:16:00,
2013-01-31 12:21:00,57.0,38.5,30.26,NE,55,2.0,7.0,50,0.00,,,0.00,meteohub,2013-01-31 20:21:00,
2013-01-31 12:26:00,57.2,38.3,30.26,ENE,67,2.0,6.0,49,0.00,,,0.00,meteohub,2013-01-31 20:26:00,
2013-01-31 12:31:00,57.4,37.4,30.26,ENE,67,1.0,5.0,47,0.00,,,0.00,meteohub,2013-01-31 20:31:00,
2013-01-31 12:36:00,58.3,39.2,30.26,NE,44,3.0,5.0,49,0.00,,,0.00,meteohub,2013-01-31 20:36:00,
2013-01-31 12:41:00,58.1,38.5,30.26,NE,52,1.0,5.0,48,0.00,,,0.00,meteohub,2013-01-31 20:41:00,
2013-01-31 12:46:00,58.5,37.8,30.25,NE,53,2.0,5.0,46,0.00,,,0.00,meteohub,2013-01-31 20:46:00,
2013-01-31 12:51:00,58.3,39.2,30.25,NE,38,2.0,5.0,49,0.00,,,0.00,meteohub,2013-01-31 20:51:00,
2013-01-31 12:56:00,58.1,37.4,30.25,NE,46,2.0,5.0,46,0.00,,,0.00,meteohub,2013-01-31 20:56:00,
2013-01-31 13:01:00,58.1,37.9,30.25,NE,46,2.0,5.0,47,0.00,,,0.00,meteohub,2013-01-31 21:01:00,
2013-01-31 13:06:00,58.6,37.9,30.25,NE,49,4.0,4.0,46,0.00,,,0.00,meteohub,2013-01-31 21:06:00,
2013-01-31 13:11:00,58.8,37.6,30.24,NE,51,1.0,4.0,45,0.00,,,0.00,meteohub,2013-01-31 21:11:00,
2013-01-31 13:16:00,59.4,40.3,30.24,NE,51,0.0,4.0,49,0.00,,,0.00,meteohub,2013-01-31 21:16:00,
2013-01-31 13:21:00,59.5,38.1,30.24,NE,51,1.0,4.0,45,0.00,,,0.00,meteohub,2013-01-31 21:21:00,
2013-01-31 13:26:00,60.3,39.9,30.24,NE,36,4.0,4.0,47,0.00,,,0.00,meteohub,2013-01-31 21:26:00,
2013-01-31 13:31:00,60.6,37.9,30.23,NE,42,3.0,4.0,43,0.00,,,0.00,meteohub,2013-01-31 21:31:00,
2013-01-31 13:36:00,60.8,38.1,30.23,ENE,68,2.0,5.0,43,0.00,,,0.00,meteohub,2013-01-31 21:36:00,
2013-01-31 13:41:00,61.2,40.8,30.23,WSW,254,0.0,5.0,47,0.00,,,0.00,meteohub,2013-01-31 21:41:00,
2013-01-31 13:46:00,61.9,40.8,30.23,SSW,198,5.0,5.0,46,0.00,,,0.00,meteohub,2013-01-31 21:46:00,
2013-01-31 13:51:00,61.9,42.4,30.23,SW,215,3.0,5.0,49,0.00,,,0.00,meteohub,2013-01-31 21:51:00,
2013-01-31 13:56:00,62.1,40.5,30.23,SSW,213,4.0,5.0,45,0.00,,,0.00,meteohub,2013-01-31 21:56:00,
2013-01-31 14:01:00,62.1,40.5,30.22,SSW,207,4.0,5.0,45,0.00,,,0.00,meteohub,2013-01-31 22:01:00,
2013-01-31 14:06:00,62.1,39.9,30.23,South,176,2.0,6.0,44,0.00,,,0.00,meteohub,2013-01-31 22:06:00,
2013-01-31 14:11:00,61.9,41.4,30.23,South,190,6.0,6.0,47,0.00,,,0.00,meteohub,2013-01-31 22:11:00,
2013-01-31 14:16:00,61.9,40.8,30.22,SSE,163,4.0,8.0,46,0.00,,,0.00,meteohub,2013-01-31 22:16:00,
2013-01-31 14:21:00,61.9,41.9,30.22,West,259,4.0,8.0,48,0.00,,,0.00,meteohub,2013-01-31 22:21:00,
2013-01-31 14:26:00,61.9,41.4,30.22,WSW,237,0.0,8.0,47,0.00,,,0.00,meteohub,2013-01-31 22:26:00,
2013-01-31 14:31:00,62.1,41.0,30.22,WSW,237,0.0,6.0,46,0.00,,,0.00,meteohub,2013-01-31 22:31:00,
2013-01-31 14:36:00,62.1,42.1,30.22,SW,232,1.0,6.0,48,0.00,,,0.00,meteohub,2013-01-31 22:36:00,
2013-01-31 14:41:00,62.1,41.5,30.22,SSW,200,5.0,8.0,47,0.00,,,0.00,meteohub,2013-01-31 22:41:00,
2013-01-31 14:46:00,62.1,41.0,30.22,SSW,211,3.0,8.0,46,0.00,,,0.00,meteohub,2013-01-31 22:46:00,
2013-01-31 14:51:00,61.7,40.6,30.22,South,183,1.0,8.0,46,0.00,,,0.00,meteohub,2013-01-31 22:51:00,
2013-01-31 14:56:00,61.7,41.9,30.22,South,191,2.0,7.0,48,0.00,,,0.00,meteohub,2013-01-31 22:56:00,
2013-01-31 15:01:00,61.9,42.4,30.22,SSW,211,3.0,5.0,49,0.00,,,0.00,meteohub,2013-01-31 23:01:00,
2013-01-31 15:06:00,61.7,42.3,30.22,WSW,244,4.0,6.0,49,0.00,,,0.00,meteohub,2013-01-31 23:06:00,
2013-01-31 15:11:00,61.3,41.5,30.22,South,177,0.0,6.0,48,0.00,,,0.00,meteohub,2013-01-31 23:11:00,
2013-01-31 15:16:00,61.5,42.6,30.22,WSW,241,2.0,6.0,50,0.00,,,0.00,meteohub,2013-01-31 23:16:00,
2013-01-31 15:21:00,61.2,43.3,30.21,South,185,3.0,7.0,52,0.00,,,0.00,meteohub,2013-01-31 23:21:00,
2013-01-31 15:26:00,61.3,42.6,30.21,SSW,202,4.0,7.0,50,0.00,,,0.00,meteohub,2013-01-31 23:26:00,
2013-01-31 15:31:00,61.2,43.0,30.21,SW,219,3.0,7.0,51,0.00,,,0.00,meteohub,2013-01-31 23:31:00,
2013-01-31 15:36:00,61.0,43.2,30.21,WSW,245,2.0,7.0,52,0.00,,,0.00,meteohub,2013-01-31 23:36:00,
2013-01-31 15:41:00,60.8,43.0,30.21,SW,215,2.0,7.0,52,0.00,,,0.00,meteohub,2013-01-31 23:41:00,
2013-01-31 15:46:00,60.6,43.3,30.21,SW,227,3.0,6.0,53,0.00,,,0.00,meteohub,2013-01-31 23:46:00,
2013-01-31 15:51:00,60.4,43.7,30.21,SSW,211,4.0,6.0,54,0.00,,,0.00,meteohub,2013-01-31 23:51:00,
2013-01-31 15:56:00,60.3,43.0,30.21,SSW,200,3.0,6.0,53,0.00,,,0.00,meteohub,2013-01-31 23:56:00,
2013-01-31 16:01:00,60.3,44.4,30.21,SSW,192,3.0,6.0,56,0.00,,,0.00,meteohub,2013-02-01 00:01:00,
2013-01-31 16:06:00,60.1,43.9,30.21,SSW,203,6.0,6.0,55,0.00,,,0.00,meteohub,2013-02-01 00:06:00,
2013-01-31 16:11:00,59.7,43.5,30.21,SSW,192,5.0,7.0,55,0.00,,,0.00,meteohub,2013-02-01 00:11:00,
2013-01-31 16:16:00,59.5,43.3,30.21,South,171,2.0,7.0,55,0.00,,,0.00,meteohub,2013-02-01 00:16:00,
2013-01-31 16:21:00,59.4,43.7,30.21,SSW,192,2.0,7.0,56,0.00,,,0.00,meteohub,2013-02-01 00:21:00,
2013-01-31 16:27:00,59.2,43.9,30.21,SSW,206,6.0,6.0,57,0.00,,,0.00,meteohub,2013-02-01 00:27:00,
2013-01-31 16:32:00,59.0,44.2,30.21,SSW,203,5.0,7.0,58,0.00,,,0.00,meteohub,2013-02-01 00:32:00,
2013-01-31 16:37:00,58.6,43.9,30.21,SSW,202,4.0,7.0,58,0.00,,,0.00,meteohub,2013-02-01 00:37:00,
2013-01-31 16:42:00,58.5,44.2,30.21,SSW,194,3.0,7.0,59,0.00,,,0.00,meteohub,2013-02-01 00:42:00,
2013-01-31 16:47:00,58.1,44.2,30.21,South,191,3.0,6.0,60,0.00,,,0.00,meteohub,2013-02-01 00:47:00,
2013-01-31 16:52:00,57.7,44.4,30.21,SSW,205,4.0,6.0,61,0.00,,,0.00,meteohub,2013-02-01 00:52:00,
2013-01-31 16:57:00,57.4,45.0,30.20,SSW,206,4.0,6.0,63,0.00,,,0.00,meteohub,2013-02-01 00:57:00,
2013-01-31 17:02:00,56.8,44.8,30.20,SSW,196,2.0,6.0,64,0.00,,,0.00,meteohub,2013-02-01 01:02:00,
2013-01-31 17:07:00,56.5,44.8,30.21,South,181,3.0,6.0,65,0.00,,,0.00,meteohub,2013-02-01 01:07:00,
2013-01-31 17:12:00,56.1,45.0,30.21,SSW,198,4.0,6.0,66,0.00,,,0.00,meteohub,2013-02-01 01:12:00,
2013-01-31 17:17:00,55.6,45.1,30.21,South,172,3.0,6.0,68,0.00,,,0.00,meteohub,2013-02-01 01:17:00,
2013-01-31 17:22:00,55.0,45.5,30.21,South,187,2.0,6.0,70,0.00,,,0.00,meteohub,2013-02-01 01:22:00,
2013-01-31 17:27:00,54.3,45.1,30.21,South,184,3.0,6.0,71,0.00,,,0.00,meteohub,2013-02-01 01:27:00,
2013-01-31 17:32:00,54.0,45.5,30.20,South,184,3.0,5.0,73,0.00,,,0.00,meteohub,2013-02-01 01:32:00,
2013-01-31 17:37:00,53.4,45.3,30.21,South,184,2.0,4.0,74,0.00,,,0.00,meteohub,2013-02-01 01:37:00,
2013-01-31 17:42:00,53.1,45.3,30.21,South,184,3.0,4.0,75,0.00,,,0.00,meteohub,2013-02-01 01:42:00,
2013-01-31 17:47:00,52.5,45.1,30.21,South,184,2.0,4.0,76,0.00,,,0.00,meteohub,2013-02-01 01:47:00,
2013-01-31 17:52:00,52.3,45.3,30.21,South,184,2.0,4.0,77,0.00,,,0.00,meteohub,2013-02-01 01:52:00,
2013-01-31 17:57:00,52.3,45.0,30.21,South,184,3.0,4.0,76,0.00,,,0.00,meteohub,2013-02-01 01:57:00,
2013-01-31 18:02:00,52.2,45.1,30.21,South,183,2.0,5.0,77,0.00,,,0.00,meteohub,2013-02-01 02:02:00,
2013-01-31 18:07:00,52.2,44.8,30.21,South,183,2.0,5.0,76,0.00,,,0.00,meteohub,2013-02-01 02:07:00,
2013-01-31 18:12:00,51.4,44.4,30.21,South,183,4.0,5.0,77,0.00,,,0.00,meteohub,2013-02-01 02:12:00,
2013-01-31 18:17:00,51.4,44.8,30.21,South,183,3.0,4.0,78,0.00,,,0.00,meteohub,2013-02-01 02:17:00,
2013-01-31 18:22:00,51.4,44.8,30.21,South,183,2.0,4.0,78,0.00,,,0.00,meteohub,2013-02-01 02:22:00,
2013-01-31 18:27:00,50.2,43.9,30.21,South,183,2.0,4.0,79,0.00,,,0.00,meteohub,2013-02-01 02:27:00,
2013-01-31 18:32:00,48.4,42.4,30.21,South,183,0.0,3.0,80,0.00,,,0.00,meteohub,2013-02-01 02:32:00,
2013-01-31 18:37:00,46.0,40.5,30.21,South,183,1.0,3.0,81,0.00,,,0.00,meteohub,2013-02-01 02:37:00,
2013-01-31 18:42:00,48.0,44.4,30.21,South,183,2.0,2.0,87,0.00,,,0.00,meteohub,2013-02-01 02:42:00,
2013-01-31 18:47:00,47.8,42.6,30.21,South,183,0.0,2.0,82,0.00,,,0.00,meteohub,2013-02-01 02:47:00,
2013-01-31 18:52:00,47.3,43.7,30.21,South,183,0.0,2.0,87,0.00,,,0.00,meteohub,2013-02-01 02:52:00,
2013-01-31 18:57:00,47.5,43.5,30.21,South,183,0.0,2.0,86,0.00,,,0.00,meteohub,2013-02-01 02:57:00,
2013-01-31 19:02:00,46.9,42.6,30.22,South,183,0.0,0.0,85,0.00,,,0.00,meteohub,2013-02-01 03:02:00,
2013-01-31 19:07:00,46.2,42.8,30.21,South,183,0.0,0.0,88,0.00,,,0.00,meteohub,2013-02-01 03:07:00,
2013-01-31 19:12:00,46.6,43.5,30.21,South,183,0.0,0.0,89,0.00,,,0.00,meteohub,2013-02-01 03:12:00,
2013-01-31 19:17:00,45.9,42.8,30.21,South,183,0.0,0.0,89,0.00,,,0.00,meteohub,2013-02-01 03:17:00,
2013-01-31 19:22:00,45.3,42.6,30.22,South,183,0.0,0.0,90,0.00,,,0.00,meteohub,2013-02-01 03:22:00,
2013-01-31 19:27:00,45.3,42.6,30.22,South,183,0.0,0.0,90,0.00,,,0.00,meteohub,2013-02-01 03:27:00,
2013-01-31 19:32:00,44.6,41.9,30.22,South,183,0.0,0.0,90,0.00,,,0.00,meteohub,2013-02-01 03:32:00,
2013-01-31 19:37:00,44.4,41.9,30.22,South,183,0.0,0.0,91,0.00,,,0.00,meteohub,2013-02-01 03:37:00,
2013-01-31 19:42:00,44.4,41.9,30.22,South,183,0.0,0.0,91,0.00,,,0.00,meteohub,2013-02-01 03:42:00,
2013-01-31 19:47:00,44.1,41.5,30.22,South,183,0.0,0.0,91,0.00,,,0.00,meteohub,2013-02-01 03:47:00,
2013-01-31 19:52:00,44.1,41.9,30.21,South,183,0.0,0.0,92,0.00,,,0.00,meteohub,2013-02-01 03:52:00,
2013-01-31 19:57:00,43.3,40.8,30.21,South,183,0.0,0.0,91,0.00,,,0.00,meteohub,2013-02-01 03:57:00,
2013-01-31 20:02:00,43.0,40.8,30.21,South,183,0.0,0.0,92,0.00,,,0.00,meteohub,2013-02-01 04:02:00,
2013-01-31 20:07:00,42.6,40.5,30.22,South,183,0.0,0.0,92,0.00,,,0.00,meteohub,2013-02-01 04:07:00,
2013-01-31 20:12:00,42.4,40.6,30.22,South,183,0.0,1.0,93,0.00,,,0.00,meteohub,2013-02-01 04:12:00,
2013-01-31 20:17:00,42.4,40.8,30.22,South,183,0.0,1.0,94,0.00,,,0.00,meteohub,2013-02-01 04:17:00,
2013-01-31 20:22:00,42.1,40.5,30.22,South,183,0.0,1.0,94,0.00,,,0.00,meteohub,2013-02-01 04:22:00,
2013-01-31 20:27:00,42.1,40.8,30.22,South,183,0.0,1.0,95,0.00,,,0.00,meteohub,2013-02-01 04:27:00,
2013-01-31 20:32:00,42.8,41.5,30.22,South,183,1.0,2.0,95,0.00,,,0.00,meteohub,2013-02-01 04:32:00,
2013-01-31 20:37:00,42.6,41.4,30.22,South,183,2.0,2.0,95,0.00,,,0.00,meteohub,2013-02-01 04:37:00,
2013-01-31 20:42:00,42.3,40.6,30.21,South,183,1.0,2.0,94,0.00,,,0.00,meteohub,2013-02-01 04:42:00,
2013-01-31 20:47:00,42.1,40.5,30.21,South,183,2.0,3.0,94,0.00,,,0.00,meteohub,2013-02-01 04:47:00,
2013-01-31 20:52:00,42.3,40.6,30.21,South,183,1.0,3.0,94,0.00,,,0.00,meteohub,2013-02-01 04:52:00,
2013-01-31 20:57:00,42.3,40.6,30.22,South,183,2.0,3.0,94,0.00,,,0.00,meteohub,2013-02-01 04:57:00,
2013-01-31 21:00:00,42.1,40.5,30.22,South,183,2.0,3.0,94,0.00,,,0.00,meteohub,2013-02-01 05:00:00,
2013-01-31 21:02:00,42.1,40.5,30.22,South,183,1.0,2.0,94,0.00,,,0.00,meteohub,2013-02-01 05:02:00,
2013-01-31 21:03:00,42.1,40.8,30.22,South,183,2.0,2.0,95,0.00,,,0.00,meteohub,2013-02-01 05:03:00,
2013-01-31 21:08:00,42.8,41.5,30.22,South,183,2.0,3.0,95,0.00,,,0.00,meteohub,2013-02-01 05:08:00,
2013-01-31 21:13:00,43.0,41.7,30.22,South,179,3.0,3.0,95,0.00,,,0.00,meteohub,2013-02-01 05:13:00,
2013-01-31 21:18:00,42.6,41.4,30.22,SSE,168,2.0,3.0,95,0.00,,,0.00,meteohub,2013-02-01 05:18:00,
2013-01-31 21:23:00,41.7,39.9,30.22,SSE,168,1.0,3.0,93,0.00,,,0.00,meteohub,2013-02-01 05:23:00,
2013-01-31 21:28:00,41.5,39.9,30.22,SSE,168,2.0,3.0,94,0.00,,,0.00,meteohub,2013-02-01 05:28:00,
2013-01-31 21:33:00,42.3,41.0,30.22,SSE,168,2.0,3.0,95,0.00,,,0.00,meteohub,2013-02-01 05:33:00,
2013-01-31 21:38:00,42.3,40.6,30.22,NE,56,2.0,3.0,94,0.00,,,0.00,meteohub,2013-02-01 05:38:00,
2013-01-31 21:43:00,41.4,39.7,30.22,NNE,32,5.0,5.0,94,0.00,,,0.00,meteohub,2013-02-01 05:43:00,
2013-01-31 21:48:00,42.1,40.8,30.22,NE,34,4.0,6.0,95,0.00,,,0.00,meteohub,2013-02-01 05:48:00,
2013-01-31 21:53:00,43.3,41.7,30.22,NNE,15,5.0,6.0,94,0.00,,,0.00,meteohub,2013-02-01 05:53:00,
2013-01-31 21:58:00,44.8,42.8,30.21,NE,44,4.0,6.0,93,0.00,,,0.00,meteohub,2013-02-01 05:58:00,
2013-01-31 22:03:00,46.2,43.5,30.21,NE,51,3.0,6.0,90,0.00,,,0.00,meteohub,2013-02-01 06:03:00,
2013-01-31 22:08:00,47.3,43.7,30.21,NE,46,3.0,6.0,87,0.00,,,0.00,meteohub,2013-02-01 06:08:00,
2013-01-31 22:13:00,48.4,44.1,30.21,NE,45,3.0,8.0,85,0.00,,,0.00,meteohub,2013-02-01 06:13:00,
2013-01-31 22:18:00,48.7,43.5,30.21,NNE,28,4.0,8.0,82,0.00,,,0.00,meteohub,2013-02-01 06:18:00,
2013-01-31 22:23:00,48.6,43.7,30.22,NE,53,5.0,8.0,83,0.00,,,0.00,meteohub,2013-02-01 06:23:00,
2013-01-31 22:28:00,48.7,44.1,30.22,ENE,57,5.0,7.0,84,0.00,,,0.00,meteohub,2013-02-01 06:28:00,
2013-01-31 22:33:00,49.5,44.2,30.22,NE,40,8.0,10.0,82,0.00,,,0.00,meteohub,2013-02-01 06:33:00,
2013-01-31 22:38:00,49.5,43.9,30.21,NE,50,4.0,10.0,81,0.00,,,0.00,meteohub,2013-02-01 06:38:00,
2013-01-31 22:43:00,49.3,43.7,30.21,NNE,33,5.0,10.0,81,0.00,,,0.00,meteohub,2013-02-01 06:43:00,
2013-01-31 22:48:00,48.7,43.5,30.21,NE,41,6.0,9.0,82,0.00,,,0.00,meteohub,2013-02-01 06:48:00,
2013-01-31 22:53:00,48.6,43.3,30.22,NE,51,5.0,9.0,82,0.00,,,0.00,meteohub,2013-02-01 06:53:00,
2013-01-31 22:58:00,48.7,43.5,30.22,NNE,27,6.0,9.0,82,0.00,,,0.00,meteohub,2013-02-01 06:58:00,
2013-01-31 23:03:00,48.9,43.3,30.22,NE,36,6.0,9.0,81,0.00,,,0.00,meteohub,2013-02-01 07:03:00,
2013-01-31 23:08:00,49.5,43.5,30.21,NNE,32,6.0,9.0,80,0.00,,,0.00,meteohub,2013-02-01 07:08:00,
2013-01-31 23:13:00,49.8,43.2,30.21,NE,41,5.0,9.0,78,0.00,,,0.00,meteohub,2013-02-01 07:13:00,
2013-01-31 23:18:00,49.8,43.2,30.21,NE,41,5.0,9.0,78,0.00,,,0.00,meteohub,2013-02-01 07:18:00,
2013-01-31 23:23:00,50.0,43.2,30.22,NE,49,5.0,9.0,77,0.00,,,0.00,meteohub,2013-02-01 07:23:00,
2013-01-31 23:28:00,50.0,42.8,30.22,NE,36,5.0,9.0,76,0.00,,,0.00,meteohub,2013-02-01 07:28:00,
2013-01-31 23:33:00,50.2,43.0,30.22,NE,38,6.0,9.0,76,0.00,,,0.00,meteohub,2013-02-01 07:33:00,
2013-01-31 23:38:00,50.2,43.0,30.22,NE,50,5.0,10.0,76,0.00,,,0.00,meteohub,2013-02-01 07:38:00,
2013-01-31 23:43:00,50.4,43.2,30.22,NE,45,6.0,10.0,76,0.00,,,0.00,meteohub,2013-02-01 07:43:00,
2013-01-31 23:48:00,50.5,43.0,30.22,NNE,24,12.0,12.0,75,0.00,,,0.00,meteohub,2013-02-01 07:48:00,
2013-01-31 23:53:00,50.7,42.8,30.21,NNE,22,5.0,12.0,74,0.00,,,0.00,meteohub,2013-02-01 07:53:00,
2013-01-31 23:58:00,50.9,42.6,30.21,NNE,31,7.0,12.0,73,0.00,,,0.00,meteohub,2013-02-01 07:58:00,